owner,sensor,date,latitude,longitude,vertical_datum,mass_concentration_of_oxygen_in_sea_water,qcFlag 
DISL,ioos:station:DISL:DISL:1,2016-11-01T00:00:00Z,30.2513,-88.0778,2.364,6.03,1111122 
DISL,ioos:station:DISL:DISL:1,2016-11-01T00:30:00Z,30.2513,-88.0778,2.368,5.83,1111122 
DISL,ioos:station:DISL:DISL:1,2016-11-01T01:00:00Z,30.2513,-88.0778,2.379,6.02,1111122 
DISL,ioos:station:DISL:DISL:1,2016-11-01T01:30:00Z,30.2513,-88.0778,2.411,6.0,1111122 
DISL,ioos:station:DISL:DISL:1,2016-11-01T02:00:00Z,30.2513,-88.0778,2.439,6.6,1111122 
DISL,ioos:station:DISL:DISL:1,2016-11-01T02:30:00Z,30.2513,-88.0778,2.455,6.78,1111122 
DISL,ioos:station:DISL:DISL:1,2016-11-01T03:00:00Z,30.2513,-88.0778,2.435,7.43,1111122 
DISL,ioos:station:DISL:DISL:1,2016-11-01T03:30:00Z,30.2513,-88.0778,2.458,7.34,1111122 
DISL,ioos:station:DISL:DISL:1,2016-11-01T04:00:00Z,30.2513,-88.0778,2.468,7.16,1111122 
DISL,ioos:station:DISL:DISL:1,2016-11-01T04:30:00Z,30.2513,-88.0778,2.465,7.12,1111122 
DISL,ioos:station:DISL:DISL:1,2016-11-01T05:30:00Z,30.2513,-88.0778,2.434,7.25,1111122 
DISL,ioos:station:DISL:DISL:1,2016-11-01T06:00:00Z,30.2513,-88.0778,2.418,7.12,1111122 
DISL,ioos:station:DISL:DISL:1,2016-11-01T06:30:00Z,30.2513,-88.0778,2.312,7.13,1111122 
DISL,ioos:station:DISL:DISL:1,2016-11-01T07:00:00Z,30.2513,-88.0778,2.366,7.34,1111122 
DISL,ioos:station:DISL:DISL:1,2016-11-01T07:30:00Z,30.2513,-88.0778,2.349,7.17,1111122 
DISL,ioos:station:DISL:DISL:1,2016-11-01T08:00:00Z,30.2513,-88.0778,2.311,7.01,1111122 
DISL,ioos:station:DISL:DISL:1,2016-11-01T08:30:00Z,30.2513,-88.0778,2.282,7.06,1111122 
DISL,ioos:station:DISL:DISL:1,2016-11-01T09:00:00Z,30.2513,-88.0778,2.24,7.27,1111122 
DISL,ioos:station:DISL:DISL:1,2016-11-01T09:30:00Z,30.2513,-88.0778,2.221,7.62,1111122 
DISL,ioos:station:DISL:DISL:1,2016-11-01T10:00:00Z,30.2513,-88.0778,2.19,7.86,1111122 
DISL,ioos:station:DISL:DISL:1,2016-11-01T10:30:00Z,30.2513,-88.0778,2.185,7.71,1111122 
DISL,ioos:station:DISL:DISL:1,2016-11-01T11:00:00Z,30.2513,-88.0778,2.162,7.49,1111122 
DISL,ioos:station:DISL:DISL:1,2016-11-01T11:30:00Z,30.2513,-88.0778,2.153,7.58,1111122 
DISL,ioos:station:DISL:DISL:1,2016-11-01T12:00:00Z,30.2513,-88.0778,2.113,7.59,1111122 
DISL,ioos:station:DISL:DISL:1,2016-11-01T12:30:00Z,30.2513,-88.0778,2.09,7.54,1111122 
DISL,ioos:station:DISL:DISL:1,2016-11-01T13:00:00Z,30.2513,-88.0778,2.091,7.51,1111122 
DISL,ioos:station:DISL:DISL:1,2016-11-01T13:30:00Z,30.2513,-88.0778,2.069,7.59,1111122 
DISL,ioos:station:DISL:DISL:1,2016-11-01T14:00:00Z,30.2513,-88.0778,2.062,7.61,1111122 
DISL,ioos:station:DISL:DISL:1,2016-11-01T14:30:00Z,30.2513,-88.0778,2.064,7.76,1111122 
DISL,ioos:station:DISL:DISL:1,2016-11-01T15:00:00Z,30.2513,-88.0778,2.054,7.82,1111122 
DISL,ioos:station:DISL:DISL:1,2016-11-01T15:30:00Z,30.2513,-88.0778,2.049,7.85,1111122 
DISL,ioos:station:DISL:DISL:1,2016-11-01T16:00:00Z,30.2513,-88.0778,2.062,7.82,1111122 
DISL,ioos:station:DISL:DISL:1,2016-11-01T16:30:00Z,30.2513,-88.0778,2.058,7.83,1111122 
DISL,ioos:station:DISL:DISL:1,2016-11-01T17:00:00Z,30.2513,-88.0778,2.065,7.68,1111122 
DISL,ioos:station:DISL:DISL:1,2016-11-01T17:30:00Z,30.2513,-88.0778,2.08,7.01,1111122 
DISL,ioos:station:DISL:DISL:1,2016-11-01T18:00:00Z,30.2513,-88.0778,2.091,6.71,1111122 
DISL,ioos:station:DISL:DISL:1,2016-11-01T18:30:00Z,30.2513,-88.0778,2.103,7.04,1111122 
DISL,ioos:station:DISL:DISL:1,2016-11-01T19:00:00Z,30.2513,-88.0778,2.109,7.15,1111122 
DISL,ioos:station:DISL:DISL:1,2016-11-01T19:30:00Z,30.2513,-88.0778,2.115,7.28,1111122 
DISL,ioos:station:DISL:DISL:1,2016-11-01T20:00:00Z,30.2513,-88.0778,2.145,7.41,1111122 
DISL,ioos:station:DISL:DISL:1,2016-11-01T20:30:00Z,30.2513,-88.0778,2.165,7.39,1111122 
DISL,ioos:station:DISL:DISL:1,2016-11-01T21:00:00Z,30.2513,-88.0778,2.187,7.31,1111122 
DISL,ioos:station:DISL:DISL:1,2016-11-01T21:30:00Z,30.2513,-88.0778,2.213,7.27,1111122 
DISL,ioos:station:DISL:DISL:1,2016-11-01T22:00:00Z,30.2513,-88.0778,2.225,6.92,1111122 
DISL,ioos:station:DISL:DISL:1,2016-11-01T22:30:00Z,30.2513,-88.0778,2.248,6.41,1111122 
DISL,ioos:station:DISL:DISL:1,2016-11-01T23:00:00Z,30.2513,-88.0778,2.274,6.27,1111122 
DISL,ioos:station:DISL:DISL:1,2016-11-01T23:30:00Z,30.2513,-88.0778,2.297,6.29,1111122 
DISL,ioos:station:DISL:DISL:1,2016-11-02T00:00:00Z,30.2513,-88.0778,2.316,6.18,1111122 
DISL,ioos:station:DISL:DISL:1,2016-11-02T00:30:00Z,30.2513,-88.0778,2.351,5.97,1111122 
DISL,ioos:station:DISL:DISL:1,2016-11-02T01:00:00Z,30.2513,-88.0778,2.387,6.14,1111122 
DISL,ioos:station:DISL:DISL:1,2016-11-02T01:30:00Z,30.2513,-88.0778,2.406,6.07,1111122 
DISL,ioos:station:DISL:DISL:1,2016-11-02T02:00:00Z,30.2513,-88.0778,2.439,5.96,1111122 
DISL,ioos:station:DISL:DISL:1,2016-11-02T02:30:00Z,30.2513,-88.0778,2.467,6.17,1111122 
DISL,ioos:station:DISL:DISL:1,2016-11-02T03:00:00Z,30.2513,-88.0778,2.474,6.1,1111122 
DISL,ioos:station:DISL:DISL:1,2016-11-02T03:30:00Z,30.2513,-88.0778,2.493,5.87,1111122 
DISL,ioos:station:DISL:DISL:1,2016-11-02T04:00:00Z,30.2513,-88.0778,2.495,6.3,1111122 
DISL,ioos:station:DISL:DISL:1,2016-11-02T04:30:00Z,30.2513,-88.0778,2.499,6.32,1111122 
DISL,ioos:station:DISL:DISL:1,2016-11-02T05:30:00Z,30.2513,-88.0778,2.49,6.35,1111122 
DISL,ioos:station:DISL:DISL:1,2016-11-02T06:00:00Z,30.2513,-88.0778,2.487,6.4,1111122 
DISL,ioos:station:DISL:DISL:1,2016-11-02T06:30:00Z,30.2513,-88.0778,2.475,6.41,1111122 
DISL,ioos:station:DISL:DISL:1,2016-11-02T07:00:00Z,30.2513,-88.0778,2.45,6.35,1111122 
DISL,ioos:station:DISL:DISL:1,2016-11-02T07:30:00Z,30.2513,-88.0778,2.431,6.42,1111122 
DISL,ioos:station:DISL:DISL:1,2016-11-02T08:00:00Z,30.2513,-88.0778,2.411,6.33,1111122 
DISL,ioos:station:DISL:DISL:1,2016-11-02T08:30:00Z,30.2513,-88.0778,2.379,6.38,1111122 
DISL,ioos:station:DISL:DISL:1,2016-11-02T09:00:00Z,30.2513,-88.0778,2.353,6.17,1111122 
DISL,ioos:station:DISL:DISL:1,2016-11-02T09:30:00Z,30.2513,-88.0778,2.337,6.32,1111122 
DISL,ioos:station:DISL:DISL:1,2016-11-02T10:00:00Z,30.2513,-88.0778,2.296,6.4,1111122 
DISL,ioos:station:DISL:DISL:1,2016-11-02T10:30:00Z,30.2513,-88.0778,2.266,6.41,1111122 
DISL,ioos:station:DISL:DISL:1,2016-11-02T11:00:00Z,30.2513,-88.0778,2.248,6.35,1111122 
DISL,ioos:station:DISL:DISL:1,2016-11-02T11:30:00Z,30.2513,-88.0778,2.214,6.32,1111122 
DISL,ioos:station:DISL:DISL:1,2016-11-02T12:00:00Z,30.2513,-88.0778,2.2,6.4,1111122 
DISL,ioos:station:DISL:DISL:1,2016-11-02T12:30:00Z,30.2513,-88.0778,2.186,6.73,1111122 
DISL,ioos:station:DISL:DISL:1,2016-11-02T13:00:00Z,30.2513,-88.0778,2.162,6.85,1111122 
DISL,ioos:station:DISL:DISL:1,2016-11-02T13:30:00Z,30.2513,-88.0778,2.145,6.93,1111122 
DISL,ioos:station:DISL:DISL:1,2016-11-02T14:00:00Z,30.2513,-88.0778,2.134,6.88,1111122 
DISL,ioos:station:DISL:DISL:1,2016-11-02T14:30:00Z,30.2513,-88.0778,2.136,7.03,1111122 
DISL,ioos:station:DISL:DISL:1,2016-11-02T15:00:00Z,30.2513,-88.0778,2.108,7.02,1111122 
DISL,ioos:station:DISL:DISL:1,2016-11-02T15:30:00Z,30.2513,-88.0778,2.118,7.0,1111122 
DISL,ioos:station:DISL:DISL:1,2016-11-02T16:00:00Z,30.2513,-88.0778,2.112,6.87,1111122 
DISL,ioos:station:DISL:DISL:1,2016-11-02T16:30:00Z,30.2513,-88.0778,2.101,6.55,1111122 
DISL,ioos:station:DISL:DISL:1,2016-11-02T17:00:00Z,30.2513,-88.0778,2.096,6.35,1111122 
DISL,ioos:station:DISL:DISL:1,2016-11-02T17:30:00Z,30.2513,-88.0778,2.1,6.35,1111122 
DISL,ioos:station:DISL:DISL:1,2016-11-02T18:00:00Z,30.2513,-88.0778,2.095,6.23,1111122 
DISL,ioos:station:DISL:DISL:1,2016-11-02T18:30:00Z,30.2513,-88.0778,2.126,6.21,1111122 
DISL,ioos:station:DISL:DISL:1,2016-11-02T19:00:00Z,30.2513,-88.0778,2.126,6.31,1111122 
DISL,ioos:station:DISL:DISL:1,2016-11-02T19:30:00Z,30.2513,-88.0778,2.127,6.31,1111122 
DISL,ioos:station:DISL:DISL:1,2016-11-02T20:00:00Z,30.2513,-88.0778,2.152,6.55,1111122 
DISL,ioos:station:DISL:DISL:1,2016-11-02T20:30:00Z,30.2513,-88.0778,2.162,6.67,1111122 
DISL,ioos:station:DISL:DISL:1,2016-11-02T21:00:00Z,30.2513,-88.0778,2.195,6.43,1111122 
DISL,ioos:station:DISL:DISL:1,2016-11-02T21:30:00Z,30.2513,-88.0778,2.207,6.74,1111122 
DISL,ioos:station:DISL:DISL:1,2016-11-02T22:00:00Z,30.2513,-88.0778,2.219,6.79,1111122 
DISL,ioos:station:DISL:DISL:1,2016-11-02T22:30:00Z,30.2513,-88.0778,2.24,6.6,1111122 
DISL,ioos:station:DISL:DISL:1,2016-11-02T23:00:00Z,30.2513,-88.0778,2.259,6.49,1111122 
DISL,ioos:station:DISL:DISL:1,2016-11-02T23:30:00Z,30.2513,-88.0778,2.278,6.3,1111122 
DISL,ioos:station:DISL:DISL:1,2016-11-03T00:00:00Z,30.2513,-88.0778,2.297,6.48,1111122 
DISL,ioos:station:DISL:DISL:1,2016-11-03T00:30:00Z,30.2513,-88.0778,2.321,6.47,1111122 
DISL,ioos:station:DISL:DISL:1,2016-11-03T01:00:00Z,30.2513,-88.0778,2.357,6.22,1111122 
DISL,ioos:station:DISL:DISL:1,2016-11-03T01:30:00Z,30.2513,-88.0778,2.37,6.06,1111122 
DISL,ioos:station:DISL:DISL:1,2016-11-03T02:00:00Z,30.2513,-88.0778,2.402,5.97,1111122 
DISL,ioos:station:DISL:DISL:1,2016-11-03T02:30:00Z,30.2513,-88.0778,2.423,5.93,1111122 
DISL,ioos:station:DISL:DISL:1,2016-11-03T03:00:00Z,30.2513,-88.0778,2.409,6.01,1111122 
DISL,ioos:station:DISL:DISL:1,2016-11-03T03:30:00Z,30.2513,-88.0778,2.451,6.14,1111122 
DISL,ioos:station:DISL:DISL:1,2016-11-03T04:00:00Z,30.2513,-88.0778,2.444,6.53,1111122 
DISL,ioos:station:DISL:DISL:1,2016-11-03T04:30:00Z,30.2513,-88.0778,2.461,6.55,1111122 
DISL,ioos:station:DISL:DISL:1,2016-11-03T05:30:00Z,30.2513,-88.0778,2.453,6.95,1111122 
DISL,ioos:station:DISL:DISL:1,2016-11-03T06:00:00Z,30.2513,-88.0778,2.439,6.81,1111122 
DISL,ioos:station:DISL:DISL:1,2016-11-03T06:30:00Z,30.2513,-88.0778,2.45,6.71,1111122 
DISL,ioos:station:DISL:DISL:1,2016-11-03T07:00:00Z,30.2513,-88.0778,2.44,6.34,1111122 
DISL,ioos:station:DISL:DISL:1,2016-11-03T07:30:00Z,30.2513,-88.0778,2.423,6.26,1111122 
DISL,ioos:station:DISL:DISL:1,2016-11-03T08:00:00Z,30.2513,-88.0778,2.381,6.2,1111122 
DISL,ioos:station:DISL:DISL:1,2016-11-03T08:30:00Z,30.2513,-88.0778,2.367,6.14,1111122 
DISL,ioos:station:DISL:DISL:1,2016-11-03T09:00:00Z,30.2513,-88.0778,2.33,6.06,1111122 
DISL,ioos:station:DISL:DISL:1,2016-11-03T09:30:00Z,30.2513,-88.0778,2.289,6.08,1111122 
DISL,ioos:station:DISL:DISL:1,2016-11-03T10:00:00Z,30.2513,-88.0778,2.263,6.11,1111122 
DISL,ioos:station:DISL:DISL:1,2016-11-03T10:30:00Z,30.2513,-88.0778,2.224,6.21,1111122 
DISL,ioos:station:DISL:DISL:1,2016-11-03T11:00:00Z,30.2513,-88.0778,2.229,6.63,1111122 
DISL,ioos:station:DISL:DISL:1,2016-11-03T11:30:00Z,30.2513,-88.0778,2.206,6.68,1111122 
DISL,ioos:station:DISL:DISL:1,2016-11-03T12:00:00Z,30.2513,-88.0778,2.177,6.77,1111122 
DISL,ioos:station:DISL:DISL:1,2016-11-03T12:30:00Z,30.2513,-88.0778,2.157,6.86,1111122 
DISL,ioos:station:DISL:DISL:1,2016-11-03T13:00:00Z,30.2513,-88.0778,2.129,6.78,1111122 
DISL,ioos:station:DISL:DISL:1,2016-11-03T13:30:00Z,30.2513,-88.0778,2.113,6.82,1111122 
DISL,ioos:station:DISL:DISL:1,2016-11-03T14:00:00Z,30.2513,-88.0778,2.081,6.85,1111122 
DISL,ioos:station:DISL:DISL:1,2016-11-03T14:30:00Z,30.2513,-88.0778,2.089,6.87,1111122 
DISL,ioos:station:DISL:DISL:1,2016-11-03T15:00:00Z,30.2513,-88.0778,2.062,7.04,1111122 
DISL,ioos:station:DISL:DISL:1,2016-11-03T15:30:00Z,30.2513,-88.0778,2.051,7.17,1111122 
DISL,ioos:station:DISL:DISL:1,2016-11-03T16:00:00Z,30.2513,-88.0778,2.04,7.23,1111122 
DISL,ioos:station:DISL:DISL:1,2016-11-03T16:30:00Z,30.2513,-88.0778,2.053,7.13,1111122 
DISL,ioos:station:DISL:DISL:1,2016-11-03T17:00:00Z,30.2513,-88.0778,2.058,7.0,1111122 
DISL,ioos:station:DISL:DISL:1,2016-11-03T17:30:00Z,30.2513,-88.0778,2.063,6.92,1111122 
DISL,ioos:station:DISL:DISL:1,2016-11-03T18:00:00Z,30.2513,-88.0778,2.058,6.87,1111122 
DISL,ioos:station:DISL:DISL:1,2016-11-03T18:30:00Z,30.2513,-88.0778,2.057,6.79,1111122 
DISL,ioos:station:DISL:DISL:1,2016-11-03T19:00:00Z,30.2513,-88.0778,2.069,6.93,1111122 
DISL,ioos:station:DISL:DISL:1,2016-11-03T19:30:00Z,30.2513,-88.0778,2.101,6.82,1111122 
DISL,ioos:station:DISL:DISL:1,2016-11-03T20:00:00Z,30.2513,-88.0778,2.112,6.71,1111122 
DISL,ioos:station:DISL:DISL:1,2016-11-03T20:30:00Z,30.2513,-88.0778,2.125,6.97,1111122 
DISL,ioos:station:DISL:DISL:1,2016-11-03T21:00:00Z,30.2513,-88.0778,2.133,7.09,1111122 
DISL,ioos:station:DISL:DISL:1,2016-11-03T21:30:00Z,30.2513,-88.0778,2.168,7.31,1111122 
DISL,ioos:station:DISL:DISL:1,2016-11-03T22:00:00Z,30.2513,-88.0778,2.183,7.45,1111122 
DISL,ioos:station:DISL:DISL:1,2016-11-03T22:30:00Z,30.2513,-88.0778,2.144,7.36,1111122 
DISL,ioos:station:DISL:DISL:1,2016-11-03T23:00:00Z,30.2513,-88.0778,2.227,7.38,1111122 
DISL,ioos:station:DISL:DISL:1,2016-11-03T23:30:00Z,30.2513,-88.0778,2.265,7.11,1111122 
DISL,ioos:station:DISL:DISL:1,2016-11-04T00:00:00Z,30.2513,-88.0778,2.277,6.97,1111122 
DISL,ioos:station:DISL:DISL:1,2016-11-04T00:30:00Z,30.2513,-88.0778,2.319,7.09,1111122 
DISL,ioos:station:DISL:DISL:1,2016-11-04T01:00:00Z,30.2513,-88.0778,2.337,6.83,1111122 
DISL,ioos:station:DISL:DISL:1,2016-11-04T01:30:00Z,30.2513,-88.0778,2.367,6.35,1111122 
DISL,ioos:station:DISL:DISL:1,2016-11-04T02:00:00Z,30.2513,-88.0778,2.387,5.93,1111122 
DISL,ioos:station:DISL:DISL:1,2016-11-04T02:30:00Z,30.2513,-88.0778,2.417,6.16,1111122 
DISL,ioos:station:DISL:DISL:1,2016-11-04T03:00:00Z,30.2513,-88.0778,2.432,6.67,1111122 
DISL,ioos:station:DISL:DISL:1,2016-11-04T03:30:00Z,30.2513,-88.0778,2.447,6.68,1111122 
DISL,ioos:station:DISL:DISL:1,2016-11-04T04:00:00Z,30.2513,-88.0778,2.45,6.56,1111122 
DISL,ioos:station:DISL:DISL:1,2016-11-04T04:30:00Z,30.2513,-88.0778,2.468,6.66,1111122 
DISL,ioos:station:DISL:DISL:1,2016-11-04T05:00:00Z,30.2513,-88.0778,2.458,6.84,1111122 
DISL,ioos:station:DISL:DISL:1,2016-11-04T05:30:00Z,30.2513,-88.0778,2.467,7.07,1111122 
DISL,ioos:station:DISL:DISL:1,2016-11-04T06:00:00Z,30.2513,-88.0778,2.467,7.14,1111122 
DISL,ioos:station:DISL:DISL:1,2016-11-04T06:30:00Z,30.2513,-88.0778,2.453,7.16,1111122 
DISL,ioos:station:DISL:DISL:1,2016-11-04T07:00:00Z,30.2513,-88.0778,2.427,7.15,1111122 
DISL,ioos:station:DISL:DISL:1,2016-11-04T07:30:00Z,30.2513,-88.0778,2.352,6.99,1111122 
DISL,ioos:station:DISL:DISL:1,2016-11-04T08:00:00Z,30.2513,-88.0778,2.394,7.1,1111122 
DISL,ioos:station:DISL:DISL:1,2016-11-04T08:30:00Z,30.2513,-88.0778,2.371,6.99,1111122 
DISL,ioos:station:DISL:DISL:1,2016-11-04T09:00:00Z,30.2513,-88.0778,2.331,6.98,1111122 
DISL,ioos:station:DISL:DISL:1,2016-11-04T09:30:00Z,30.2513,-88.0778,2.313,6.99,1111122 
DISL,ioos:station:DISL:DISL:1,2016-11-04T10:00:00Z,30.2513,-88.0778,2.274,6.91,1111122 
DISL,ioos:station:DISL:DISL:1,2016-11-04T10:30:00Z,30.2513,-88.0778,2.257,6.92,1111122 
DISL,ioos:station:DISL:DISL:1,2016-11-04T11:00:00Z,30.2513,-88.0778,2.207,6.83,1111122 
DISL,ioos:station:DISL:DISL:1,2016-11-04T11:30:00Z,30.2513,-88.0778,2.168,6.89,1111122 
DISL,ioos:station:DISL:DISL:1,2016-11-04T12:00:00Z,30.2513,-88.0778,2.161,7.05,1111122 
DISL,ioos:station:DISL:DISL:1,2016-11-04T12:30:00Z,30.2513,-88.0778,2.147,7.29,1111122 
DISL,ioos:station:DISL:DISL:1,2016-11-04T13:00:00Z,30.2513,-88.0778,2.119,7.24,1111122 
DISL,ioos:station:DISL:DISL:1,2016-11-04T13:30:00Z,30.2513,-88.0778,2.098,7.16,1111122 
DISL,ioos:station:DISL:DISL:1,2016-11-04T14:00:00Z,30.2513,-88.0778,2.091,0.0,1114422 
DISL,ioos:station:DISL:DISL:1,2016-11-04T14:30:00Z,30.2513,-88.0778,2.059,0.0,1114422 
DISL,ioos:station:DISL:DISL:1,2016-11-04T15:00:00Z,30.2513,-88.0778,2.037,0.0,1114422 
DISL,ioos:station:DISL:DISL:1,2016-11-04T15:30:00Z,30.2513,-88.0778,2.025,0.0,1114422 
DISL,ioos:station:DISL:DISL:1,2016-11-04T16:00:00Z,30.2513,-88.0778,2.01,7.52,1111122 
DISL,ioos:station:DISL:DISL:1,2016-11-04T16:30:00Z,30.2513,-88.0778,1.996,7.64,1111122 
DISL,ioos:station:DISL:DISL:1,2016-11-04T17:00:00Z,30.2513,-88.0778,1.988,7.79,1111122 
DISL,ioos:station:DISL:DISL:1,2016-11-04T17:30:00Z,30.2513,-88.0778,1.995,7.73,1111122 
DISL,ioos:station:DISL:DISL:1,2016-11-04T18:00:00Z,30.2513,-88.0778,2.002,7.75,1111122 
DISL,ioos:station:DISL:DISL:1,2016-11-04T18:30:00Z,30.2513,-88.0778,1.942,7.58,1111122 
DISL,ioos:station:DISL:DISL:1,2016-11-04T19:00:00Z,30.2513,-88.0778,2.047,7.43,1111122 
DISL,ioos:station:DISL:DISL:1,2016-11-04T19:30:00Z,30.2513,-88.0778,2.057,6.93,1111122 
DISL,ioos:station:DISL:DISL:1,2016-11-04T20:00:00Z,30.2513,-88.0778,2.055,7.1,1111122 
DISL,ioos:station:DISL:DISL:1,2016-11-04T20:30:00Z,30.2513,-88.0778,2.072,7.48,1111122 
DISL,ioos:station:DISL:DISL:1,2016-11-04T21:00:00Z,30.2513,-88.0778,2.08,7.86,1111122 
DISL,ioos:station:DISL:DISL:1,2016-11-04T21:30:00Z,30.2513,-88.0778,2.098,7.49,1111122 
DISL,ioos:station:DISL:DISL:1,2016-11-04T22:00:00Z,30.2513,-88.0778,2.128,7.46,1111122 
DISL,ioos:station:DISL:DISL:1,2016-11-04T22:30:00Z,30.2513,-88.0778,2.156,7.45,1111122 
DISL,ioos:station:DISL:DISL:1,2016-11-04T23:00:00Z,30.2513,-88.0778,2.152,7.51,1111122 
DISL,ioos:station:DISL:DISL:1,2016-11-04T23:30:00Z,30.2513,-88.0778,2.219,7.37,1111122 
DISL,ioos:station:DISL:DISL:1,2016-11-05T00:00:00Z,30.2513,-88.0778,2.243,7.58,1111122 
DISL,ioos:station:DISL:DISL:1,2016-11-05T00:30:00Z,30.2513,-88.0778,2.272,7.56,1111122 
DISL,ioos:station:DISL:DISL:1,2016-11-05T01:00:00Z,30.2513,-88.0778,2.266,7.62,1111122 
DISL,ioos:station:DISL:DISL:1,2016-11-05T01:30:00Z,30.2513,-88.0778,2.269,7.46,1111122 
DISL,ioos:station:DISL:DISL:1,2016-11-05T02:00:00Z,30.2513,-88.0778,2.318,6.33,1111122 
DISL,ioos:station:DISL:DISL:1,2016-11-05T02:30:00Z,30.2513,-88.0778,2.347,6.63,1111122 
DISL,ioos:station:DISL:DISL:1,2016-11-05T03:00:00Z,30.2513,-88.0778,2.383,7.35,1111122 
DISL,ioos:station:DISL:DISL:1,2016-11-05T03:30:00Z,30.2513,-88.0778,2.374,7.4,1111122 
DISL,ioos:station:DISL:DISL:1,2016-11-05T04:00:00Z,30.2513,-88.0778,2.41,7.37,1111122 
DISL,ioos:station:DISL:DISL:1,2016-11-05T04:30:00Z,30.2513,-88.0778,2.382,7.28,1111122 
DISL,ioos:station:DISL:DISL:1,2016-11-05T05:30:00Z,30.2513,-88.0778,2.333,7.26,1111122 
DISL,ioos:station:DISL:DISL:1,2016-11-05T06:00:00Z,30.2513,-88.0778,2.364,7.19,1111122 
DISL,ioos:station:DISL:DISL:1,2016-11-05T06:30:00Z,30.2513,-88.0778,2.399,7.14,1111122 
DISL,ioos:station:DISL:DISL:1,2016-11-05T07:00:00Z,30.2513,-88.0778,2.358,7.19,1111122 
DISL,ioos:station:DISL:DISL:1,2016-11-05T07:30:00Z,30.2513,-88.0778,2.352,7.44,1111122 
DISL,ioos:station:DISL:DISL:1,2016-11-05T08:00:00Z,30.2513,-88.0778,2.338,7.08,1111122 
DISL,ioos:station:DISL:DISL:1,2016-11-05T08:30:00Z,30.2513,-88.0778,2.371,6.95,1111122 
DISL,ioos:station:DISL:DISL:1,2016-11-05T09:00:00Z,30.2513,-88.0778,2.335,7.0,1111122 
DISL,ioos:station:DISL:DISL:1,2016-11-05T09:30:00Z,30.2513,-88.0778,2.191,7.03,1111122 
DISL,ioos:station:DISL:DISL:1,2016-11-05T10:00:00Z,30.2513,-88.0778,2.297,6.92,1111122 
DISL,ioos:station:DISL:DISL:1,2016-11-05T10:30:00Z,30.2513,-88.0778,2.299,7.01,1111122 
DISL,ioos:station:DISL:DISL:1,2016-11-05T11:00:00Z,30.2513,-88.0778,2.23,7.01,1111122 
DISL,ioos:station:DISL:DISL:1,2016-11-05T11:30:00Z,30.2513,-88.0778,2.191,6.94,1111122 
DISL,ioos:station:DISL:DISL:1,2016-11-05T12:00:00Z,30.2513,-88.0778,2.162,6.9,1111122 
DISL,ioos:station:DISL:DISL:1,2016-11-05T12:30:00Z,30.2513,-88.0778,2.168,6.73,1111122 
DISL,ioos:station:DISL:DISL:1,2016-11-05T13:00:00Z,30.2513,-88.0778,2.213,6.89,1111122 
DISL,ioos:station:DISL:DISL:1,2016-11-05T13:30:00Z,30.2513,-88.0778,2.146,6.95,1111122 
DISL,ioos:station:DISL:DISL:1,2016-11-05T14:00:00Z,30.2513,-88.0778,2.119,6.99,1111122 
DISL,ioos:station:DISL:DISL:1,2016-11-05T14:30:00Z,30.2513,-88.0778,2.109,6.98,1111122 
DISL,ioos:station:DISL:DISL:1,2016-11-05T15:00:00Z,30.2513,-88.0778,2.016,7.01,1111122 
DISL,ioos:station:DISL:DISL:1,2016-11-05T15:30:00Z,30.2513,-88.0778,2.084,7.02,1111122 
DISL,ioos:station:DISL:DISL:1,2016-11-05T16:00:00Z,30.2513,-88.0778,2.085,7.02,1111122 
DISL,ioos:station:DISL:DISL:1,2016-11-05T16:30:00Z,30.2513,-88.0778,2.053,7.03,1111122 
DISL,ioos:station:DISL:DISL:1,2016-11-05T17:00:00Z,30.2513,-88.0778,2.051,7.12,1111122 
DISL,ioos:station:DISL:DISL:1,2016-11-05T17:30:00Z,30.2513,-88.0778,2.032,7.13,1111122 
DISL,ioos:station:DISL:DISL:1,2016-11-05T18:00:00Z,30.2513,-88.0778,2.056,7.17,1111122 
DISL,ioos:station:DISL:DISL:1,2016-11-05T18:30:00Z,30.2513,-88.0778,2.048,7.18,1111122 
DISL,ioos:station:DISL:DISL:1,2016-11-05T19:00:00Z,30.2513,-88.0778,2.048,7.17,1111122 
DISL,ioos:station:DISL:DISL:1,2016-11-05T19:30:00Z,30.2513,-88.0778,2.056,7.16,1111122 
DISL,ioos:station:DISL:DISL:1,2016-11-05T20:00:00Z,30.2513,-88.0778,2.065,7.05,1111122 
DISL,ioos:station:DISL:DISL:1,2016-11-05T20:30:00Z,30.2513,-88.0778,2.073,6.99,1111122 
DISL,ioos:station:DISL:DISL:1,2016-11-05T21:00:00Z,30.2513,-88.0778,2.086,6.97,1111122 
DISL,ioos:station:DISL:DISL:1,2016-11-05T21:30:00Z,30.2513,-88.0778,2.105,6.94,1111122 
DISL,ioos:station:DISL:DISL:1,2016-11-05T22:00:00Z,30.2513,-88.0778,2.115,6.97,1111122 
DISL,ioos:station:DISL:DISL:1,2016-11-05T22:30:00Z,30.2513,-88.0778,2.133,6.96,1111122 
DISL,ioos:station:DISL:DISL:1,2016-11-05T23:00:00Z,30.2513,-88.0778,2.151,7.02,1111122 
DISL,ioos:station:DISL:DISL:1,2016-11-05T23:30:00Z,30.2513,-88.0778,2.167,6.95,1111122 
DISL,ioos:station:DISL:DISL:1,2016-11-06T00:00:00Z,30.2513,-88.0778,2.179,6.95,1111122 
DISL,ioos:station:DISL:DISL:1,2016-11-06T00:30:00Z,30.2513,-88.0778,2.213,6.8,1111122 
DISL,ioos:station:DISL:DISL:1,2016-11-06T01:00:00Z,30.2513,-88.0778,2.232,6.54,1111122 
DISL,ioos:station:DISL:DISL:1,2016-11-06T01:30:00Z,30.2513,-88.0778,2.256,6.31,1111122 
DISL,ioos:station:DISL:DISL:1,2016-11-06T02:00:00Z,30.2513,-88.0778,2.228,5.86,1111122 
DISL,ioos:station:DISL:DISL:1,2016-11-06T02:30:00Z,30.2513,-88.0778,2.309,5.75,1111122 
DISL,ioos:station:DISL:DISL:1,2016-11-06T03:00:00Z,30.2513,-88.0778,2.349,5.7,1111122 
DISL,ioos:station:DISL:DISL:1,2016-11-06T03:30:00Z,30.2513,-88.0778,2.349,5.71,1111122 
DISL,ioos:station:DISL:DISL:1,2016-11-06T04:00:00Z,30.2513,-88.0778,2.35,5.61,1111122 
DISL,ioos:station:DISL:DISL:1,2016-11-06T04:30:00Z,30.2513,-88.0778,2.366,5.65,1111122 
DISL,ioos:station:DISL:DISL:1,2016-11-06T05:30:00Z,30.2513,-88.0778,2.407,5.8,1111122 
DISL,ioos:station:DISL:DISL:1,2016-11-06T06:00:00Z,30.2513,-88.0778,2.397,5.84,1111122 
DISL,ioos:station:DISL:DISL:1,2016-11-06T06:30:00Z,30.2513,-88.0778,2.409,5.68,1111122 
DISL,ioos:station:DISL:DISL:1,2016-11-06T07:00:00Z,30.2513,-88.0778,2.391,5.77,1111122 
DISL,ioos:station:DISL:DISL:1,2016-11-06T07:30:00Z,30.2513,-88.0778,2.388,6.18,1111122 
DISL,ioos:station:DISL:DISL:1,2016-11-06T08:00:00Z,30.2513,-88.0778,2.393,6.25,1111122 
DISL,ioos:station:DISL:DISL:1,2016-11-06T08:30:00Z,30.2513,-88.0778,2.384,6.29,1111122 
DISL,ioos:station:DISL:DISL:1,2016-11-06T09:00:00Z,30.2513,-88.0778,2.362,6.38,1111122 
DISL,ioos:station:DISL:DISL:1,2016-11-06T09:30:00Z,30.2513,-88.0778,2.34,6.42,1111122 
DISL,ioos:station:DISL:DISL:1,2016-11-06T10:00:00Z,30.2513,-88.0778,2.378,6.47,1111122 
DISL,ioos:station:DISL:DISL:1,2016-11-06T10:30:00Z,30.2513,-88.0778,2.297,6.58,1111122 
DISL,ioos:station:DISL:DISL:1,2016-11-06T11:00:00Z,30.2513,-88.0778,2.284,6.64,1111122 
DISL,ioos:station:DISL:DISL:1,2016-11-06T11:30:00Z,30.2513,-88.0778,2.253,6.69,1111122 
DISL,ioos:station:DISL:DISL:1,2016-11-06T12:00:00Z,30.2513,-88.0778,2.23,6.74,1111122 
DISL,ioos:station:DISL:DISL:1,2016-11-06T12:30:00Z,30.2513,-88.0778,2.158,6.78,1111122 
DISL,ioos:station:DISL:DISL:1,2016-11-06T13:00:00Z,30.2513,-88.0778,2.038,6.79,1111122 
DISL,ioos:station:DISL:DISL:1,2016-11-06T13:30:00Z,30.2513,-88.0778,2.118,6.79,1111122 
DISL,ioos:station:DISL:DISL:1,2016-11-06T14:00:00Z,30.2513,-88.0778,2.11,6.8,1111122 
DISL,ioos:station:DISL:DISL:1,2016-11-06T14:30:00Z,30.2513,-88.0778,2.093,6.87,1111122 
DISL,ioos:station:DISL:DISL:1,2016-11-06T15:00:00Z,30.2513,-88.0778,2.047,6.88,1111122 
DISL,ioos:station:DISL:DISL:1,2016-11-06T15:30:00Z,30.2513,-88.0778,2.044,6.88,1111122 
DISL,ioos:station:DISL:DISL:1,2016-11-06T16:00:00Z,30.2513,-88.0778,2.036,6.94,1111122 
DISL,ioos:station:DISL:DISL:1,2016-11-06T16:30:00Z,30.2513,-88.0778,2.028,6.91,1111122 
DISL,ioos:station:DISL:DISL:1,2016-11-06T17:00:00Z,30.2513,-88.0778,2.024,6.92,1111122 
DISL,ioos:station:DISL:DISL:1,2016-11-06T17:30:00Z,30.2513,-88.0778,2.013,6.91,1111122 
DISL,ioos:station:DISL:DISL:1,2016-11-06T18:00:00Z,30.2513,-88.0778,2.006,6.93,1111122 